Location: Aressy
(43.2833°N, 0.3167°W)
Time: 07:24:35
(UTC+00:00)

Cosmos 1844 - Visible Passes

Search period start: 11 May 2021 00:00
Search period end: 21 May 2021 00:00
Orbit: 823 x 867 km, 70.9° (Epoch: 10 May)

Date Brightness Start Highest point End Pass type
(mag) Time Alt. Az. Time Alt. Az. Time Alt. Az.
11 May 5.5 20:52:40 10° WSW 20:57:51 35° NW 21:03:02 10° N visible
12 May 6.4 04:01:48 10° N 04:06:19 24° NE 04:10:46 10° ESE visible
12 May 5.4 20:38:37 10° WSW 20:43:50 36° NW 20:49:02 10° N visible
13 May 6.4 03:47:50 10° N 03:52:17 24° NE 03:56:42 10° ESE visible
13 May 5.4 20:24:34 10° WSW 20:29:50 37° WNW 20:35:03 10° N visible
14 May 6.4 03:33:52 10° N 03:38:15 23° NE 03:42:37 10° ESE visible
14 May 5.4 20:10:32 10° SW 20:15:48 38° WNW 20:21:04 10° N visible
15 May 6.4 03:19:54 10° N 03:24:15 22° NE 03:28:32 10° E visible
15 May 5.4 19:56:29 10° SW 20:01:48 39° WNW 20:07:05 10° NNE visible
16 May 6.4 03:05:56 10° N 03:10:12 22° NE 03:14:27 10° E visible
16 May 5.4 19:42:27 10° SW 19:47:47 40° WNW 19:53:06 10° NNE visible
17 May 6.4 02:51:59 10° N 02:56:11 21° NE 03:00:21 10° E visible
18 May 6.4 02:38:01 10° N 02:42:09 21° NE 02:46:16 10° E visible
19 May 6.4 02:24:03 10° N 02:28:07 20° NE 02:32:10 10° E visible
20 May 6.4 02:10:05 10° N 02:14:05 20° NE 02:18:03 10° E visible
20 May 3.6 03:53:16 10° NNW 03:58:49 73° WSW 04:04:20 10° SSE visible
